DELTA 1 DEB, 20051

Orbit data source: Space-Track

DELTA 1 DEB, 20051 is space debris in SSO originally from a launch on Thu, 29 Jul 1976 UTC launched from the Air Force Western Test Range (AFWTR). Debris objects in space refer to the collection of defunct objects orbiting the Earth. Examples of debris include non-operational satellites, rocket bodies, and fragments generated from explosions, collisions, or faulty payload assembly.

Loading next visibility...
Identifier
20051, 1976-077FN
Orbit
SSO
Country
Flag of USUS
Related business
Manufacturer
Unknown
Mission
Spacecraft
Bus & Motor
Unknown
Mass
Unknown
Launch date (UTC)
1976-07-29 (49 years ago)
Launch vehicle
Unknown
Launch site
Air Force Western Test Range (AFWTR)
Object type
Payload
Rocket body
Debris
Shape & HBR
Unknown shape, 0.1 m
Radar Cross Section
Small (<0.1 m²)

Expand to show TLE details & history
Last TLE update: 4 days ago

TLE from 4 days ago
0 DELTA 1 DEB
1 20051U 76077FN  25285.37799347  .00000054  00000-0  97094-3 0  9997
2 20051 102.5176 239.9005 0153112  99.7860  51.0852 12.14710952587768
Epoch: 2025-10-12T09:04Z
TLE epoch observation values (Epoch: 2025-10-12T09:04:18.635Z)
Latitude
27.071°
Longitude
-90.88966°
Altitude
1,542.861 km
Speed
7.131 km/s
True Right ascension
04h 25m 32s
True Declination
26° 56' 44"
Sunlit
Object was in full shadow at epoch
Visualization orbit readout
Latitude
Unknown
Longitude
Unknown
Altitude
Unknown
Speed
Unknown
Apparent Right ascension
Unknown
Apparent Declination
Unknown
Sunlit
N/A
Visualization observer readout
Local Sidereal Time
14:58:22
Azimuth
Unknown
Elevation
Unknown
Doppler factor
Unknown
Orbital elements
Apogee altitude
1,735.658 km
Perigee altitude
1,490.941 km
Semi-major axis
7,991.437 km
Eccentricity
0.01531
Inclination
102.5176°
RAAN
239.9005°
Arg. of periapsis
99.786°
True anomaly
52.46684°
Mean anomaly
51.0852°
Eccentric anomaly
51.77436°
Mean motion
3.03813 °/min
Orbital period
118.49 mins
BSTAR
0.00097094
Loading maneuver chart data...
Computing Atmospheric mass density...
Loading historical data...
Loading historical data...
Loading historical data...
Loading historical data...
Loading historical data...
Loading historical data...
Loading historical data...

Documentation

Showing up to 5 results
|